Flag for USA

Past Weather in 33°54'33"N, 81°12'16"W, USA — Yesterday and Last 2 Weeks

Now
78 °F

Clear.


Feels Like: 80 °F
Forecast: 85 / 71 °F
Wind: No wind

Location: Columbia Owens Downtown Airport

Current Time: Jul 6, 2020 at 12:45:37 am

Latest Report: Jul 5, 2020 at 11:53 pm


Visibility: 10 mi

Pressure: 30.01 "Hg

Humidity: 76%

Dew Point: 70 °F

Location of 33°54'33"N, 81°12'16"WLocation

Past Weather in 33°54'33"N, 81°12'16"W — Graph

°F

33°54'33"N, 81°12'16"W Temperature Yesterday

Maximum temperature yesterday: 92 °F (at 12:53 pm)
Minimum temperature yesterday: 73 °F (at 5:53 am)
Average temperature yesterday: 83 °F

High & Low Weather Summary for the Past Weeks

 TemperatureHumidityPressure
High95 °F (Jun 21, 4:53 pm)100% (Jun 25, 7:11 am)30.16 "Hg (Jun 25, 7:11 am)
Low70 °F (Jun 21, 4:53 am)28% (Jul 3, 4:53 pm)29.82 "Hg (Jun 23, 4:53 pm)
Average80 °F73%29.95 "Hg
* Reported Jun 20 10:53 pm — Jul 5 10:53 pm, 33°54'33"N, 81°12'16"W. Weather by CustomWeather, © 2020

Note: Actual official high and low records may vary slightly from our data, if they occured in-between our weather recording intervals... More about our weather records

33°54'33"N, 81°12'16"W Weather History for the Previous 24 Hours

Scroll right to see more
 ConditionsComfort  
Time TempWeatherWind HumidityBarometerVisibility
10:53 pm
Sun, Jul 5
80 °FClear.No wind69%29.99 "Hg10 mi
9:53 pm82 °FClear.3 mph65%29.98 "Hg10 mi
8:53 pm84 °FClear.3 mph57%29.96 "Hg10 mi
7:53 pm87 °FSunny.5 mph48%29.95 "Hg10 mi
6:53 pm89 °FSunny.7 mph46%29.94 "Hg10 mi
5:53 pm90 °FSunny.7 mph41%29.92 "Hg10 mi
4:53 pm91 °FSunny.8 mph37%29.94 "Hg10 mi
3:53 pm92 °FSunny.10 mph41%29.95 "Hg10 mi
2:53 pm92 °FSunny.5 mph40%29.98 "Hg10 mi
1:53 pm92 °FSunny.7 mph40%29.98 "Hg10 mi
12:53 pm92 °FSunny.5 mph36%30.00 "Hg10 mi
11:53 am88 °FSunny.5 mph52%30.00 "Hg10 mi
10:53 am86 °FSunny.No wind59%30.00 "Hg10 mi
9:53 am82 °FSunny.No wind74%29.99 "Hg10 mi
8:53 am79 °FSunny.No wind82%29.99 "Hg10 mi
7:53 am76 °FSunny.No wind85%29.98 "Hg9 mi
6:53 am73 °FFog.No wind90%29.97 "Hg6 mi
5:53 am73 °FClear.No wind90%29.96 "Hg8 mi
4:53 am74 °FClear.No wind88%29.94 "Hg9 mi
3:53 am74 °FClear.No wind88%29.95 "Hg9 mi
2:53 am75 °FClear.No wind85%29.95 "Hg9 mi
1:53 am77 °FClear.No wind79%29.95 "Hg10 mi
12:53 am78 °FClear.No wind76%29.96 "Hg10 mi
Weather by CustomWeather, © 2020

See weather overview